OneWeb SL0049

operational
NORAD ID: 45154 Int'l Des: 2020-008 Owner: ONEWEB Country: UK Constellation: oneweb
LEOCIRCULARPOLARONEWEB_TYPE

关于 OneWeb SL0049

正在加载描述...

实时位置

正在加载3D地球...

即将过境

高度历史

Altitude vs Time

uPlot chart will show altitude changes over time

两行轨道根数

1 45154U 20008Z 25257.57239806 -.00000629 00000-0 -18383-2 0 9994
2 45154 87.8740 91.2498 0002152 89.0342 271.1032 13.10373434271931
Epoch: Sep 14, 2025 • Age: 19 hours

当前状态

高度 1223.7 km
速度 7.24 km/s
星下点 8.98°N, 142.19°E
发射日期 Feb 6, 2020
运行时间 5.6 years
类型 internet

技术详情

分类 Payload
质量 148.00 kg
干质量 140.00 kg
总质量 148.00 kg
长度 1.30 m
直径 1.00 m
跨度 5.00 m
形状 Trapezoid+2 pan
制造商 ONEWUS
平台类型 ARROW
阶段状态 In Orbit
所有者/国家 ONEWEB/UK

大型星座

Loading constellations...